Flag for Switzerland Weather past 2 weeks in Pratteln, Basel-Land, Switzerland

Now
45 °F

Scattered showers. Overcast.


Feels Like: 40 °F
Forecast: 32 / 38 °F
Wind: 9 mph from West

Location: Bale-Mulhouse

Current Time: Dec 25, 2014 at 9:39:09 AM

Latest Report: Dec 25, 2014 at 9:00 AM


Visibility: N/A

Pressure: 30.33 "Hg

Humidity: 87%

Dew point: 41 °F

Location of PrattelnLocation

Historic Weather in Pratteln — Graph

°F

Pratteln temperature yesterday

Maximum temperature yesterday: 48 °F (at 2:30 PM)
Minimum temperature yesterday: 32 °F (at 12:00 AM)
Average temperature yesterday: 40 °F

Past Weeks' High & Low Weather Summary

 TemperatureHumidityPressure
High55 °F (Dec 18, 4:00 PM)100% (Dec 10, 9:00 PM)30.57 "Hg (Dec 10, 9:00 PM)
Low30 °F (Dec 23, 5:00 AM)54% (Dec 23, 2:00 PM)29.80 "Hg (Dec 12, 6:00 PM)
Average44 °F84%30.16 "Hg
* Reported Dec 10 8:00 AM — Dec 25 8:30 AM, Pratteln, Weather by CustomWeather, © 2014

Note: Actual official high and low records may vary slightly from our data, if they occured in-between our weather recording intervals... More about our weather records

Advertising

Pratteln weather history for previous 24 hours

 ConditionsComfort  
Time TempWeatherWind HumidityBarometerVisibility
8:30 AM
Dec 25
45 °FLight rain. Partly sunny.9 mph87%30.30 "HgN/A
8:00 AM45 °FLight rain. Passing clouds.10 mph87%30.30 "HgN/A
7:30 AM46 °FPassing clouds.9 mph87%30.27 "HgN/A
7:00 AM46 °FMostly cloudy.6 mph87%30.27 "HgN/A
6:30 AM46 °FPartly cloudy.7 mph87%30.27 "HgN/A
6:00 AM46 °FPassing clouds.8 mph87%30.27 "HgN/A
5:30 AM46 °FPassing clouds.9 mph87%30.27 "HgN/A
5:00 AM46 °FPassing clouds.9 mph87%30.27 "HgN/A
4:30 AM46 °FPassing clouds.7 mph87%30.27 "HgN/A
4:00 AM46 °FMostly cloudy.3 mph82%30.27 "HgN/A
3:30 AM46 °FMostly cloudy.2 mph82%30.27 "HgN/A
3:00 AM46 °FMostly cloudy.3 mph82%30.27 "HgN/A
2:30 AM46 °FMostly cloudy.1 mph82%30.27 "HgN/A
2:00 AM46 °FMostly cloudy.2 mph82%30.27 "HgN/A
1:30 AM46 °FMostly cloudy.2 mph82%30.27 "HgN/A
1:00 AM46 °FMostly cloudy.7 mph82%30.27 "HgN/A
12:30 AM46 °FOvercast.5 mph76%30.27 "HgN/A
12:00 AM48 °FOvercast.2 mph66%30.27 "HgN/A
11:30 PM
Dec 24
46 °FOvercast.3 mph71%30.27 "HgN/A
11:00 PM46 °FPassing clouds.5 mph71%30.27 "HgN/A
10:30 PM41 °FPassing clouds.5 mph87%30.27 "HgN/A
9:30 PM39 °FClear.3 mph87%30.27 "Hg10 mi
9:00 PM39 °FClear.2 mph87%30.27 "Hg10 mi
8:30 PM39 °FClear.5 mph87%30.27 "Hg10 mi
8:00 PM39 °FPassing clouds.3 mph81%30.27 "HgN/A
7:30 PM41 °FPartly cloudy.3 mph76%30.27 "HgN/A
7:00 PM39 °FPassing clouds.5 mph87%30.27 "HgN/A
6:30 PM41 °FPassing clouds.6 mph81%30.27 "HgN/A
6:00 PM37 °FClear.2 mph87%30.27 "Hg10 mi
5:30 PM39 °FPassing clouds.No wind87%30.27 "HgN/A
5:00 PM43 °FPassing clouds.1 mph81%30.27 "HgN/A
4:30 PM45 °FPassing clouds.5 mph76%30.27 "HgN/A
4:00 PM48 °FPassing clouds.2 mph71%30.27 "HgN/A
3:30 PM48 °FPassing clouds.3 mph66%30.27 "HgN/A
3:00 PM48 °FPassing clouds.5 mph66%30.27 "HgN/A
2:30 PM48 °FScattered clouds.2 mph66%30.27 "HgN/A
2:00 PM46 °FBroken clouds.3 mph71%30.27 "HgN/A
1:30 PM45 °FBroken clouds.3 mph76%30.30 "HgN/A
1:00 PM45 °FBroken clouds.No wind76%30.30 "HgN/A
12:30 PM43 °FPartly sunny.3 mph81%30.33 "HgN/A
12:00 PM43 °FBroken clouds.5 mph76%30.33 "HgN/A
11:30 AM41 °FBroken clouds.5 mph87%30.33 "HgN/A
11:00 AM41 °FPartly sunny.3 mph81%30.33 "HgN/A
10:30 AM41 °FPartly sunny.5 mph81%30.33 "HgN/A
10:00 AM39 °FPartly sunny.2 mph87%30.33 "HgN/A
9:30 AM37 °FPartly sunny.5 mph87%30.30 "HgN/A
9:00 AM37 °FPartly sunny.3 mph87%30.33 "HgN/A
Weather by CustomWeather, © 2014

See weather overviewHow to use our weather pages